Weather in Milotichi

Russia / Kaluga Oblast     54°13′33″N   34°29′26″E
temp.,
°C
wind,
m/s
gust,
m/s
humid.,
%
clouds,
%
prec.,
mm/h
press.,
hPa
HPBL,
m
17 may, mon
mon1700:00+13ne228055 0.0 101213
03:00+12ese349041 0.0 101359
06:00+13e4986100 0.0 1012171
09:00+18e6127673 0.2 1011481
12:00+23ese710668 0.6 10091047
15:00+25ese7125799 0.6 10071867
18:00+22ese71266100 0.0 1006762
21:00+19ese614735 0.0 1006480
18 may, tue
tue1800:00+17se5148156 0.0 1005441
03:00+15se5129118 0.0 1006305
06:00+15se41194100 0.0 1006287
09:00+20sse6107726 0.0 1006690
12:00+23se696495 0.1 10051480
15:00+22sse5870100 1.5 10051228
18:00+20sse61179100 1.5 1005933
21:00+15s299175 2.9 1005239
19 may, wed
wed1900:00+13sse379674 0.0 1006161
03:00+13ese3494100 0.0 100679
06:00+14ese3693100 0.1 1005163
09:00+17se588536 0.1 1005562
12:00+20se686496 0.2 10051500
15:00+19sse5871100 1.6 10051235
18:00+17sse5883100 1.9 1005659
21:00+14sse379499 2.8 1006150
20 may, thu
thu2000:00+12sse229392 0.1 100640
03:00+11se229479 0.1 100614
06:00+11sse2597100 0.6 1005180
09:00+15s3583100 0.6 1005481
12:00+16s567984 2.1 1005734
15:00+17sw7978100 3.7 10051126
18:00+12sw8118897 1.1 1007946
21:00+10wsw71286100 1.2 1010942
21 may, fri
fri2100:00+9sw5129145 0.0 1012447
03:00+8ssw410976 0.0 1013250
06:00+9sw38956 0.0 1015261
09:00+14wsw347755 0.0 1016656
12:00+17ssw3365100 0.3 10161167
15:00+13ssw4790100 1.8 1016410
18:00+12s3796100 1.3 1016405
21:00+12sse3698100 1.8 1015195